Regional Weather Roundup
Issued by NWS New Orleans/Baton Rouge, LA

Home | Current Version | Previous Version | Text Only | Print | Product List | Glossary On
Versions: 1 2 3 4 5 6 7 8 9 10 11 12 13 14 15 16 17 18 19 20 21 22 23 24 25 26 27 28 29 30 31 32 33 34 35 36 37 38 39 40 41 42 43 44 45 46 47 48 49 50
000
ASUS44 KLIX 230010
RWRLIX
NEW ORLEANS REGIONAL WEATHER ROUNDUP
NATIONAL WEATHER SERVICE NEW ORLEANS LA
700 PM CDT WED OCT 22 2014

NOTE: "FAIR" INDICATES FEW OR NO CLOUDS BELOW 12,000 FEET WITH NO
      SIGNIFICANT WEATHER AND/OR OBSTRUCTIONS TO VISIBILITY.
      SKY/WX - SKY CONDITION AND SIGNIFICANT WEATHER.
      TMP - AIR TEMPERATURE.     DP    - DEWPOINT TEMPERATURE.
      RH  - RELATIVE HUMIDITY.   PRES  - PRESSURE.
      HI  - HEAT INDEX.          WCI   - WIND CHILL INDEX.

*  THESE STATIONS ARE NOT NWS OR FAA STATIONS AND ARE NOT UNDER
   NWS QUALITY CONTROL.

LAZ038-040-048-061>063-065>067-069-230100-
SOUTHEAST LOUISIANA

CITY           SKY/WX    TMP DP  RH WIND       PRES   REMARKS
N.O. AUDUBON     N/A     73  56  54 MISG        N/A
6HR MIN TEMP:  72; 6HR MAX TEMP:  82;

N.O. INTL ARPT PTCLDY    71  52  50 NE5       30.03R
6HR MIN TEMP:  71; 6HR MAX TEMP:  79;

N.O. LAKEFRONT CLEAR     74  58  57 N5        30.04R
6HR MIN TEMP:  73; 6HR MAX TEMP:  80;

N.O. DOWNTOWN*   N/A     73  52  46 CALM      30.04S
6HR MIN TEMP:  73; 6HR MAX TEMP:  79;

SLIDELL        CLEAR     65  58  78 CALM      30.04R
6HR MIN TEMP:  64; 6HR MAX TEMP:  81;

BATON ROUGE    CLEAR     65  55  70 N3        30.05R
6HR MIN TEMP:  65; 6HR MAX TEMP:  80;

BOOTHVILLE     CLEAR     72  57  59 NE8       30.03R
6HR MIN TEMP:  72; 6HR MAX TEMP:  77;

BELLE CHASSE   CLEAR     63  57  81 CALM      30.03R
6HR MIN TEMP:  63; 6HR MAX TEMP:  79;

BOGALUSA*        N/A     67  50  54 N5        30.07R
6HR MIN TEMP:  67; 6HR MAX TEMP:  82;

NEW ROADS*       N/A     68  55  64 N5        30.05S
6HR MIN TEMP:  68; 6HR MAX TEMP:  79;

GONZALES*        N/A     64  60  85 CALM      30.04R
6HR MIN TEMP:  64; 6HR MAX TEMP:  80;

HAMMOND*       CLEAR     68  54  60 CALM      30.06R
HOUMA*         CLEAR     70  54  56 NE5       30.03R
PORT FOURCHON* CLEAR     73  55  53 NE12      30.06S

$$

MSZ070-080>082-230100-
SOUTHERN MISSISSIPPI

CITY           SKY/WX    TMP DP  RH WIND       PRES   REMARKS
MCCOMB         CLEAR     69  48  47 NE5       30.07R
6HR MIN TEMP:  69; 6HR MAX TEMP:  79;

GULFPORT       CLEAR     71  52  50 N6        30.04R
6HR MIN TEMP:  71; 6HR MAX TEMP:  81;

BILOXI         CLEAR     70  54  56 NE7       30.04R
6HR MIN TEMP:  70; 6HR MAX TEMP:  80;

PASCAGOULA     CLEAR     63  52  67 N6        30.04R
6HR MIN TEMP:  62; 6HR MAX TEMP:  80;

STENNIS ARPT*  CLEAR     63  54  72 VRB3      30.04R

$$

COASTAL OBSERVATIONS
LAKE AND NEARSHORE STATIONS

STATION/POSITION TIME  TEMP    WIND        PRES    WAVE
                       AIR SEA DIR/SP/G            HT/PER
                 (UTC) (F)     (DEG/KT/KT) (MB)    (FT/S)
PASCAGOULA       0000   73      10/  7/  9 1016.6
WAVELAND YACHT   0000   74      40/  7/  8 1016.5
GRAND ISLE       0000   73 76   70/  8/ 12 1017.5
SOUTHWEST PASS   0000   75 83              1016.9
NEW CANAL        0000   74 73   10/  4/  4 1017.3
SHELL BEACH      0000   73 70   60/  6/  7 1016.8

OFFSHORE STATIONS

STATION/POSITION TIME  TEMP    WIND        PRES    WAVE
                       AIR SEA DIR/SP/G            HT/PER
                 (UTC) (F)     (DEG/KT/KT) (MB)    (FT/S)

$$




USA.gov is the U.S. government's official web portal to all federal, state and local government web resources and services.